This demonstration page uses our WeatherBlox Daily Observations layout. Learn more.

Left ArrowRight Arrow

44.89941, -97.11507

Hourly Observations for July 13, 2020

Temp ( °F °C ) Dew Point ( °F °C ) Humidity (%) Winds ( mph kmh ) Pressure ( in mb ) Visibility ( mi km ) Precip ( " mm )
12:53 am 00:53 Clear 66 18.9 61 16.1 84 84 SSE 10 17 29.86 1011 10 16 0.00 0.00
1:53 am 01:53 Clear 65 18.3 61 16.1 87 87 SSE 8 13 29.84 1011 10 16 0.00 0.00
2:53 am 02:53 Clear 64 17.8 60 15.6 87 87 SSE 8 13 29.82 1010 10 16 0.00 0.00
3:53 am 03:53 Clear 64 17.8 60 15.6 87 87 SSE 9 15 29.82 1010 10 16 0.00 0.00
4:53 am 04:53 Clear 64 17.8 61 16.1 90 90 SSE 13 20 29.80 1009 10 16 0.00 0.00
5:53 am 05:53 Clear 64 17.8 61 16.1 90 90 SSE 13 20 29.80 1009 10 16 0.00 0.00
6:53 am 06:53 Sunny 65 18.3 61 16.1 87 87 SSE 14 22 29.79 1009 10 16 0.00 0.00
7:53 am 07:53 Sunny 67 19.4 61 16.1 81 81 SE 12 19 29.77 1008 10 16 0.00 0.00
8:53 am 08:53 Sunny 70 21.1 63 17.2 79 79 SSE 14 22 29.74 1007 10 16 0.00 0.00
9:53 am 09:53 Sunny 75 23.9 63 17.2 66 66 S 18 30 29.74 1007 10 16 0.00 0.00
10:53 am 10:53 Sunny 79 26.1 64 17.8 60 60 SSE 21 33 29.69 1005 10 16 0.00 0.00
11:53 am 11:53 Sunny 81 27.2 65 18.3 58 58 SSE 20 31 29.67 1005 10 16 0.00 0.00
12:53 pm 12:53 Sunny 85 29.4 66 18.9 53 53 SSE 26 43 29.66 1004 10 16 0.00 0.00
1:53 pm 13:53 Cloudy 84 28.9 65 18.3 53 53 S 24 39 29.66 1005 10 16 0.00 0.00
2:53 pm 14:53 Mostly Cloudy 84 28.9 66 18.9 55 55 S 21 33 29.67 1005 10 16 0.00 0.00
3:53 pm 15:53 Mostly Cloudy 86 30 67 19.4 53 53 SSW 17 28 29.67 1005 10 16 0.00 0.00
4:53 pm 16:53 Mostly Cloudy 86 30 68 20 55 55 SSW 15 24 29.66 1005 10 16 0.00 0.00
5:53 pm 17:53 Sunny 87 30.6 70 21.1 57 57 WSW 14 22 29.66 1004 10 16 0.00 0.00
6:53 pm 18:53 Sunny 85 29.4 69 20.6 59 59 W 12 19 29.68 1005 10 16 0.00 0.00
7:53 pm 19:53 Sunny 82 27.8 67 19.4 60 60 WNW 9 15 29.71 1006 10 16 0.00 0.00
8:53 pm 20:53 Sunny 77 25 66 18.9 69 69 NW 8 13 29.73 1007 10 16 0.00 0.00
9:53 pm 21:53 Clear 75 23.9 66 18.9 74 74 NNW 7 11 29.74 1007 10 16 0.00 0.00
10:53 pm 22:53 Clear 70 21.1 64 17.8 82 82 NNW 6 9 29.75 1007 10 16 0.00 0.00
11:53 pm 23:53 Clear 69 20.6 64 17.8 84 84 NNW 6 9 29.77 1008 10 16 0.00 0.00

Powered by AerisWeather